RH
100 100 94 89 77 63 43 33 42 58 52 53 49 40 49 54 52 53 53 56 53 49 47 49 52 50 54
92 98 80 71 60 47 42 58 62 74 76 65 55 45 59 64 62 58 60 59 60 60 58 59 58 60 59
92 72 65 65 45 50 53 83 99 92 97 73 57 47 52 65 72 70 66 63 64 68 68 65 64 62 61
58 71 68 46 39 43 83 98 89 100 94 75 56 54 52 55 60 64 70 76 79 76 76 74 71 70 70
58 69 64 40 53 65 99 98 100 90 100 82 66 64 62 64 65 62 62 66 68 67 68 69 72 71 70
63 57 59 47 68 83 100 100 100 94 93 78 70 70 72 70 69 67 67 65 63 62 63 64 67 66 65
32 42 43 69 85 100 100 97 100 100 93 74 72 73 76 70 68 70 69 64 63 69 68 68 66 62 61
34 47 68 86 100 100 100 100 94 100 93 78 75 78 76 70 72 73 64 64 75 71 72 72 68 64 61
49 65 82 100 100 100 100 93 98 98 89 80 83 87 81 74 74 71 70 73 70 71 72 71 71 68 64
73 94 100 100 100 100 100 98 93 92 91 79 87 87 78 76 73 69 74 74 73 75 76 75 71 66 64
98 100 100 100 100 100 96 98 97 99 84 91 85 84 76 73 78 80 82 83 78 74 75 72 65 62 58
100 100 99 100 96 90 92 93 100 90 95 88 85 79 78 86 90 85 79 76 69 67 67 62 56 48 33
100 100 100 98 92 99 99 100 90 93 89 87 85 85 96 95 85 77 78 72 72 70 58 42 29 25 24
100 96 99 95 100 95 89 97 91 93 90 91 94 97 94 91 86 79 80 71 52 36 31 28 25 21 20
100 96 96 100 90 97 98 94 90 87 92 98 97 98 96 94 83 78 70 47 35 31 27 23 20 18 18
99 98 86 90 95 100 96 96 90 91 92 92 94 92 92 83 74 62 45 35 31 24 23 23 20 16 18
89 96 95 100 100 100 97 97 96 96 96 94 90 94 90 82 62 44 36 28 22 20 21 20 19 17 19
Wind_Speed
102 105 111 107 97 99 88 84 78 73 72 66 63 56 48 45 40 39 36 34 32 32 32 30 31 31 32
107 105 100 97 91 81 79 72 69 68 67 65 62 55 47 46 44 42 40 39 38 37 34 32 30 31 30
100 98 92 84 81 77 70 66 64 65 65 65 62 54 49 47 47 47 46 44 42 40 37 35 34 33 31
91 85 81 81 77 73 62 61 63 62 63 62 60 57 52 49 48 47 46 46 46 45 44 43 42 40 38
84 81 81 78 74 64 60 62 59 62 62 64 60 58 56 54 54 51 50 49 48 48 48 48 47 45 43
87 82 78 76 65 60 59 61 62 63 62 63 64 62 58 57 57 56 55 53 52 51 49 49 49 48 46
80 75 73 61 58 57 60 62 61 63 64 65 63 64 63 61 58 55 54 56 54 52 51 51 50 50 49
72 68 59 57 55 60 61 64 65 64 65 68 68 69 66 63 60 56 57 54 51 53 53 52 51 52 52
60 56 54 53 59 63 62 64 64 67 68 69 71 70 69 66 61 61 57 53 55 54 53 53 55 56 57
55 49 53 61 61 64 64 66 68 65 69 72 70 70 72 66 63 62 58 60 57 55 54 56 58 59 60
48 54 60 62 63 63 68 67 65 68 73 71 71 72 67 65 63 60 60 60 60 59 61 63 63 63 64
56 59 60 62 64 66 65 66 68 73 71 73 72 66 66 62 61 61 62 62 62 61 63 63 63 63 63
58 58 62 66 64 64 66 69 71 69 72 70 66 65 60 61 65 62 62 61 60 62 64 64 62 57 54
61 65 65 66 64 66 67 68 71 69 64 65 62 60 60 63 66 66 65 67 66 63 62 56 53 51 52
62 64 62 64 65 65 69 73 65 62 63 61 60 61 63 66 69 69 69 68 64 58 52 55 55 50 51
60 63 64 64 65 69 71 66 65 64 62 61 61 64 66 70 70 70 67 64 56 52 52 53 58 50 47
62 63 64 67 71 69 67 66 63 64 63 64 65 67 70 71 73 68 65 57 53 52 49 50 53 53 45
Wind_Direction
293 294 298 300 303 305 306 307 308 308 312 316 317 315 309 307 305 303 301 300 301 301 302 306 308 315 318
292 294 298 300 303 304 304 304 305 305 308 313 316 314 304 301 298 296 296 297 299 300 300 303 306 308 312
294 296 298 300 302 302 301 300 299 302 305 311 313 311 306 298 294 292 293 294 294 295 293 294 296 297 298
294 297 301 301 301 300 296 295 297 299 304 309 312 312 308 305 298 292 290 289 289 290 289 290 292 292 290
295 299 299 299 297 294 292 293 294 300 302 306 311 313 310 308 305 299 295 291 289 287 287 286 285 283 281
295 295 294 294 293 289 287 292 295 297 300 305 306 311 309 307 304 300 296 296 294 289 287 285 283 279 276
289 289 290 287 286 284 289 293 293 296 298 304 307 309 308 309 305 299 295 297 294 290 288 286 283 279 275
285 286 285 283 283 285 289 290 295 294 299 303 305 308 307 307 304 299 298 294 290 289 287 285 283 279 275
281 280 279 282 282 285 285 291 294 295 299 302 306 307 306 306 302 301 298 292 291 288 286 284 282 279 277
277 275 276 278 282 283 286 291 294 296 300 303 305 304 304 302 300 300 297 295 292 289 287 284 283 283 281
271 272 275 279 280 285 288 291 296 298 301 302 304 303 302 301 300 300 299 295 292 290 288 286 285 285 283
270 274 277 278 282 287 291 294 295 298 299 302 302 301 301 300 300 302 300 297 296 294 291 290 289 287 284
273 272 275 281 287 289 293 295 298 297 299 301 300 301 300 300 302 304 303 300 300 297 295 294 291 286 282
271 277 279 285 287 290 294 297 298 298 299 300 299 300 298 301 302 303 302 302 301 299 297 293 287 284 283
278 282 285 285 288 292 296 298 297 298 298 297 298 299 300 301 302 302 302 302 302 300 295 292 288 286 283
283 284 286 289 292 294 296 295 296 296 295 295 296 299 300 300 301 301 302 302 301 297 295 293 291 290 286
285 289 291 291 292 294 294 294 294 294 295 296 297 300 300 301 302 302 303 301 300 297 295 291 290 293 289